Tracking 19969 objects as of 12-Nov-2019
Live streaming from Space Station
objects crossing your sky now
Track the group of recently launched Starlink satellites

METEOR 2-5 DEB

Track METEOR 2-5 DEB now!
10-day predictions


NORAD ID: 35254
Int'l Code: 1979-095V
Perigee: 755.7 km
Apogee: 764.3 km
Inclination: 81.2 °
Period: 99.9 minutes
Semi major axis: 7130 km
RCS: 0.0087 m2 (small)
Launch date: October 31, 1979
Source: Commonwealth of Independent States (former USSR) (CIS)
Launch site: PLESETSK MISSILE AND SPACE COMPLEX (PKMTR)

Note: This is SATELLITE DEBRIS
aabbcc
Your satellite tracking list
Your tracking list is empty




NASA's NSSDC Master Catalog

Two Line Element Set (TLE):
1 35254U 79095V   19315.95815874  .00001050  00000-0  31808-3 0  9994
2 35254  81.2041 181.4127 0005991 199.9311 160.1644 14.41713759837123
Source of the keplerian elements: AFSPC